Weather History for MWCR - February, 2014

Change the Weather History Date:

Tuesday, February 11, 2014

  Actual Average Record
Temperature  
Mean Temperature 80 °F -  
Max Temperature 86 °F 81 °F 87 °F (2002)
Min Temperature 75 °F 73 °F 59 °F (2000)
Cooling Degree Days 16    
Growing Degree Days 30 (Base 50)    
Moisture  
Dew Point 74 °F    
Average Humidity 78    
Maximum Humidity 94    
Minimum Humidity 66    
Precipitation  
Precipitation 0.00 in - - ()
Sea Level Pressure  
Sea Level Pressure 29.98 in    
Wind  
Wind Speed 6 mph ()    
Max Wind Speed 12 mph    
Max Gust Speed -    
Visibility 6.2 miles    
Events      
Averages and records for this station are not official NWS values.
T = Trace of Precipitation, MM = Missing Value Source: Averaged Metar Reports

Daily Weather History Graph

Daily Weather History Graph

Search for Another Location

Airport or City:

Trip Planner

Search our weather history database for the weather conditions in past years. The results will help you decide how hot, cold, wet, or windy it might be!

Date:

Astronomy

Feb. 11, 2014 Rise Set
Actual Time 6:56 AM EST 6:23 PM EST
Civil Twilight 6:33 AM EST 6:46 PM EST
Nautical Twilight 6:07 AM EST 7:12 PM EST
Astronomical Twilight 5:41 AM EST 7:37 PM EST
Moon 3:52 PM EST (2/11) 4:21 AM EST (2/11)
Length of Visible Light 12h 12m
Length of Day
11h 27m
Waxing Gibbous, 90% of the Moon is Illuminated
Feb 11
Waxing Gibbous
Feb 14
Full
Feb 22
Last Quarter
Mar 1
New
Mar 8
First Quarter

Hourly Weather History & Observations

Time (EST) Temp. Heat Index Dew Point Humidity Pressure Visibility Wind Dir Wind Speed Gust Speed Precip Events Conditions
6:00 AM 77.0 °F - 73.4 °F 89% 29.95 in 6.2 mi East 3.5 mph - N/A   Clear
7:00 AM 75.2 °F - 73.4 °F 94% 29.98 in 6.2 mi East 3.5 mph - N/A   Partly Cloudy
8:00 AM 78.8 °F - 73.4 °F 83% 29.98 in 6.2 mi East 3.5 mph - N/A   Scattered Clouds
9:00 AM 82.4 °F 88.2 °F 73.4 °F 74% 30.01 in 6.2 mi East 8.1 mph - N/A   Partly Cloudy
10:00 AM 82.4 °F 88.2 °F 73.4 °F 74% 30.04 in 6.2 mi ENE 9.2 mph - N/A   Mostly Cloudy
11:00 AM 82.4 °F 88.2 °F 73.4 °F 74% 30.04 in 6.2 mi ENE 9.2 mph - N/A   Mostly Cloudy
12:00 PM 82.4 °F 88.2 °F 73.4 °F 74% 30.01 in 6.2 mi ENE 10.4 mph - N/A   Scattered Clouds
1:00 PM 83 °F - 74 °F 69% 30.00 in 6 mi ENE 10.4 mph - -   Scattered Clouds
1:00 PM 84.2 °F 92.3 °F 75.2 °F 74% 29.98 in 6.2 mi ENE 10.4 mph - N/A   Partly Cloudy
2:00 PM 84.2 °F 92.3 °F 75.2 °F 74% 29.98 in 6.2 mi East 8.1 mph - N/A   Partly Cloudy
3:00 PM 86.0 °F 93.4 °F 73.4 °F 66% 29.95 in 6.2 mi SE 8.1 mph - N/A   Partly Cloudy
3:55 PM 84.2 °F 90.9 °F 73.4 °F 70% 29.95 in 6.2 mi SE 9.2 mph - N/A   Partly Cloudy
4:53 PM 82.4 °F 89.5 °F 75.2 °F 79% 29.95 in 6.2 mi ENE 10.4 mph - N/A   Scattered Clouds
5:54 PM 82.4 °F 88.2 °F 73.4 °F 74% 29.95 in 6.2 mi East 11.5 mph - N/A   Scattered Clouds
6:55 PM 80.6 °F 85.4 °F 73.4 °F 79% 29.95 in 6.2 mi ESE 4.6 mph - N/A   Partly Cloudy
7:00 PM 80 °F - 73 °F 75% 29.96 in 6 mi East 4.6 mph - -   Scattered Clouds
7:50 PM 78.8 °F - 77.0 °F 94% 29.98 in 6.2 mi East 6.9 mph - N/A   Partly Cloudy
8:50 PM 78.8 °F - 75.2 °F 89% 29.98 in 6.2 mi East 6.9 mph - N/A   Partly Cloudy
9:50 PM 78.8 °F - 73.4 °F 83% 30.01 in 6.2 mi East 4.6 mph - N/A   Partly Cloudy